Probability
12 13 13 10 8 6 4 2 3 5 4 1 0 1 3 5 5 6 7 8 7 6 5 3 3 3 3 3 2 3 3 2 1 0 0 0 0 0 0 0 0 0 0
13 14 13 10 9 8 7 5 5 6 5 1 0 1 4 6 7 6 7 7 7 6 4 2 3 3 3 3 3 3 4 3 1 1 0 0 0 0 0 0 0 0 0
16 16 15 13 11 11 11 9 7 7 6 2 1 2 4 7 8 8 7 7 6 4 3 2 2 3 3 3 3 3 3 3 2 1 0 0 0 0 0 0 0 0 0
18 18 17 14 14 13 13 10 9 8 6 2 2 4 6 8 9 8 8 7 5 3 2 2 2 2 3 3 3 3 2 1 1 1 0 0 0 0 0 0 0 0 0
17 17 16 15 14 14 12 9 9 10 7 3 1 4 7 9 9 7 6 5 3 2 2 2 2 2 3 3 3 3 2 2 1 1 0 0 0 0 0 0 0 0 0
16 16 15 14 12 12 11 10 11 11 8 3 1 2 5 7 7 6 5 4 2 1 1 3 4 4 2 2 3 4 4 5 5 4 2 1 0 0 0 0 0 0 0
14 14 14 13 11 10 11 12 13 11 7 5 2 1 2 3 4 6 6 5 3 1 2 4 6 5 3 2 3 5 6 6 7 7 6 4 2 1 0 0 0 0 0
13 13 13 12 11 10 11 13 13 11 9 7 5 3 1 1 2 4 6 7 6 5 5 6 6 6 6 5 5 6 6 6 7 7 7 5 3 2 1 1 1 1 0
13 13 13 12 11 10 11 12 12 11 10 9 8 6 3 2 2 3 4 6 7 7 8 7 6 8 9 10 8 7 6 6 7 7 6 5 3 2 2 2 2 2 1
17 17 16 15 13 12 12 12 12 12 11 10 10 8 5 3 3 4 4 5 5 6 7 7 6 7 10 12 11 9 7 6 6 6 7 7 4 3 4 4 4 3 3
24 24 22 19 17 16 16 15 15 15 13 12 11 9 7 5 4 4 4 4 4 4 4 5 4 5 8 10 9 8 7 5 4 5 7 8 6 5 6 6 5 4 4
29 28 24 22 21 20 19 19 20 20 17 14 12 10 9 8 6 5 4 3 3 3 4 5 5 5 6 6 5 4 4 3 2 3 5 6 5 4 5 6 6 4 4
26 26 24 24 24 23 21 23 24 22 20 17 14 11 10 9 8 6 4 3 2 2 5 7 7 6 5 4 2 1 2 2 1 1 2 2 1 2 3 4 5 4 3
24 25 23 23 23 22 21 24 24 21 20 18 15 13 12 10 8 7 6 5 4 4 5 7 8 8 8 5 3 1 2 1 0 0 0 0 0 1 2 3 3 2 1
24 24 23 21 20 20 21 23 23 21 21 19 16 14 12 9 8 7 7 7 7 6 5 5 7 9 9 7 4 3 3 1 0 0 0 0 0 1 1 2 2 1 0
23 22 21 20 18 18 20 22 22 21 20 19 16 13 11 10 8 7 6 7 8 8 6 5 6 7 8 6 3 4 4 1 0 0 0 0 0 0 0 1 1 0 0
21 20 19 19 18 17 18 19 18 18 17 15 12 10 9 10 9 8 8 8 9 8 7 6 6 7 7 7 4 3 3 1 1 0 0 0 0 0 0 0 0 0 0
20 18 18 18 16 15 15 15 14 14 14 12 10 9 9 10 10 10 10 10 10 10 8 7 7 8 9 8 7 5 3 2 1 0 0 0 0 0 0 0 0 0 0
19 18 18 17 15 13 14 15 14 12 12 11 9 10 11 10 10 11 10 11 12 11 9 7 8 10 9 8 7 6 4 2 1 0 0 0 0 0 0 0 0 0 0
18 18 17 16 13 13 14 15 15 13 12 11 10 11 12 11 10 9 9 11 12 12 10 9 8 8 9 8 7 6 5 3 1 0 0 0 0 0 0 0 0 0 0
19 19 18 15 13 12 11 12 14 14 13 13 12 12 11 11 9 8 8 9 10 10 11 10 8 7 8 8 7 6 5 3 3 1 1 1 0 0 0 0 0 0 0
21 21 19 17 15 12 8 8 9 11 14 15 14 12 10 9 8 7 7 6 6 6 8 9 7 6 6 7 7 6 5 4 3 2 1 1 1 1 0 0 0 0 0
22 22 20 19 17 12 7 5 5 9 14 16 15 13 10 9 8 8 8 7 5 5 6 6 5 4 5 6 6 6 6 4 3 2 1 1 1 1 0 0 0 0 0
21 21 20 19 17 12 7 4 4 8 13 15 14 13 11 10 9 9 10 10 8 6 5 4 3 4 5 6 6 6 6 5 3 2 1 0 1 1 0 0 0 0 0
20 19 18 17 15 11 6 3 4 9 13 14 14 13 12 11 9 9 10 11 9 7 5 4 3 2 2 3 5 6 6 5 3 2 1 0 0 0 0 0 0 0 0
18 17 15 15 13 10 6 2 3 9 13 14 15 14 12 11 9 8 9 10 9 7 6 4 3 1 1 1 2 4 6 5 2 1 0 0 0 0 0 1 1 1 0
Wind_Speed
1 1 1 1 1 2 2 1 2 1 1 1 1 2 2 2 3 5 5 10 9 9 8 8 8 7 7 7 7 7 7 7 7 7 7 6 5 5 5 5 5 5 5
2 1 1 1 1 1 1 1 2 1 1 1 1 2 2 2 3 4 5 6 8 8 7 7 7 7 7 7 7 7 7 7 7 7 7 6 6 5 6 5 5 5 5
2 2 1 2 1 1 2 1 1 1 2 2 2 2 2 1 2 3 4 4 5 7 7 7 7 6 7 7 7 7 7 7 7 7 6 6 6 6 6 5 5 5 5
1 1 1 1 1 1 2 1 1 1 1 1 1 1 2 2 2 3 3 3 4 4 6 7 7 6 7 7 7 7 7 6 6 6 6 6 6 6 6 5 5 5 5
1 1 1 1 1 1 2 1 2 1 1 1 1 1 1 2 2 2 3 3 3 4 4 6 7 7 7 8 7 7 6 6 6 6 6 6 6 6 5 5 5 5 5
1 1 2 2 2 1 1 1 1 1 1 1 1 1 1 2 2 2 3 3 3 4 5 5 5 5 7 7 7 7 6 6 6 6 7 7 6 5 5 5 5 4 4
2 1 1 2 1 2 2 2 2 1 1 1 1 1 1 2 2 2 2 2 3 3 4 5 4 3 3 6 6 6 6 6 6 6 7 7 6 6 6 5 5 5 5
2 3 2 2 2 2 2 2 2 1 1 2 1 1 1 0 1 2 2 2 2 2 3 4 4 4 4 3 4 6 5 6 6 6 7 7 6 6 6 5 5 5 5
2 1 2 2 2 2 2 2 2 2 1 1 1 1 1 1 1 1 2 2 2 2 2 3 3 4 4 4 4 5 6 5 6 6 7 7 7 7 7 6 6 5 6
2 2 2 2 1 1 2 2 2 1 1 1 1 1 1 1 1 1 1 1 2 2 2 2 3 3 3 3 4 6 7 6 6 6 6 6 7 7 7 7 7 6 6
2 2 2 2 1 1 2 2 1 1 1 1 1 1 1 1 1 1 1 1 1 1 2 2 2 3 3 4 4 5 8 7 6 6 5 5 6 7 7 7 7 6 7
2 2 2 2 2 2 2 1 1 2 1 1 1 0 1 1 1 1 1 2 2 2 3 2 2 2 3 3 5 9 9 9 7 7 6 6 6 6 6 6 7 7 7
2 2 3 3 2 2 2 1 1 1 1 0 1 1 1 1 1 1 1 1 1 1 2 2 2 2 3 3 4 10 10 10 8 7 7 6 6 6 6 6 6 6 6
1 2 3 3 3 2 2 2 2 1 1 1 1 1 1 1 1 1 0 1 1 1 2 2 2 3 2 3 5 9 7 11 10 8 8 7 7 6 6 6 6 5 5
2 2 3 3 3 2 2 2 1 1 1 1 1 1 1 1 1 1 1 1 1 1 2 1 1 2 2 3 6 5 5 10 11 10 9 8 8 7 7 6 6 5 5
1 2 3 4 4 3 3 2 2 2 2 1 1 1 2 1 1 1 1 1 1 1 1 1 1 1 1 1 5 3 3 9 11 11 10 10 9 8 7 7 7 7 6
1 2 3 3 3 3 3 3 3 3 3 2 1 1 1 1 1 2 1 1 1 0 1 1 0 1 1 1 2 3 3 5 6 11 12 11 11 10 9 9 9 8 8
2 2 3 3 4 4 3 3 3 3 3 3 3 2 2 1 2 1 1 1 1 1 1 2 1 1 2 2 3 4 4 4 4 10 13 13 12 11 11 10 10 9 9
2 2 2 3 4 3 3 3 3 3 3 3 3 3 2 2 2 1 2 1 2 1 1 1 2 1 1 1 2 3 3 2 4 7 12 13 13 12 12 11 11 10 10
2 3 3 3 3 3 3 3 3 3 3 3 3 3 2 2 2 2 2 2 2 2 1 2 2 2 2 1 1 2 2 2 3 3 5 8 11 13 13 12 12 11 11
3 3 3 3 3 3 3 3 3 4 3 3 3 3 2 2 2 2 2 1 2 2 1 2 2 2 1 1 1 2 3 2 3 2 1 3 4 5 8 11 12 13 12
3 3 3 3 3 2 2 2 2 3 3 3 3 2 3 3 3 3 3 3 3 3 2 2 2 2 2 2 2 2 2 2 2 2 2 3 3 4 5 6 11 14 14
2 3 3 3 2 2 3 3 3 3 3 3 3 3 4 3 3 3 3 4 4 5 6 4 3 4 3 2 2 3 3 3 3 2 2 4 3 4 5 5 10 13 14
2 3 3 3 3 3 4 4 3 3 3 3 3 4 3 2 3 2 3 3 4 4 5 5 4 4 4 2 3 3 3 3 3 3 3 3 3 4 4 4 9 12 13
3 3 3 3 3 3 4 4 4 3 3 4 3 3 3 3 3 3 2 3 3 4 5 4 4 5 5 5 3 2 2 2 3 3 2 3 3 3 3 3 5 11 13
3 3 3 3 3 3 4 5 5 3 3 3 3 3 4 4 3 4 2 3 4 3 3 4 3 4 5 5 6 5 4 3 3 3 2 2 2 2 2 2 2 4 6
Wind_Direction
149 148 129 134 146 136 145 129 119 104 108 110 132 99 84 90 118 113 123 135 135 136 144 149 150 153 155 154 153 155 157 158 157 158 158 158 165 169 170 170 169 163 163
134 132 147 157 123 118 114 130 134 147 123 101 88 84 96 93 104 120 132 139 137 138 144 150 152 155 155 155 153 156 159 162 161 160 161 166 172 171 169 169 170 170 169
136 153 153 147 150 139 134 121 123 124 145 140 129 137 125 128 114 118 134 144 145 145 147 150 152 151 153 154 153 152 154 155 158 159 164 169 171 170 170 170 171 172 172
139 164 141 145 158 140 125 142 153 128 113 114 133 133 123 125 127 141 147 150 149 149 153 154 151 150 152 153 154 153 154 154 155 162 162 163 162 161 162 166 173 178 178
143 183 137 133 173 141 145 179 127 129 134 149 160 150 145 144 152 165 166 159 148 145 149 155 154 150 154 155 155 154 154 155 157 160 163 160 157 156 161 164 165 175 183
169 193 148 158 186 147 144 116 124 139 156 179 186 148 167 155 160 174 179 158 156 155 155 152 156 158 158 157 155 157 159 160 162 165 170 167 160 159 158 163 165 165 171
181 204 170 166 184 152 161 148 136 171 178 162 139 140 174 167 164 164 171 168 164 161 158 154 155 154 158 160 157 160 164 171 173 173 174 172 167 165 166 165 171 177 178
186 191 179 181 174 150 155 150 159 183 186 167 152 148 138 165 238 191 171 173 166 162 159 165 156 158 150 147 157 164 168 171 171 175 176 174 175 174 174 177 180 183 186
169 204 160 176 182 169 173 175 179 191 208 197 166 158 164 180 194 198 188 172 164 160 160 155 153 164 157 150 156 169 169 174 174 179 183 184 183 184 186 188 189 190 190
168 174 160 161 181 166 164 193 177 200 204 224 179 184 169 143 167 171 207 173 172 164 176 170 152 155 144 137 139 152 163 171 174 177 181 184 187 189 194 196 195 194 194
167 158 147 157 172 174 169 182 147 193 205 226 224 190 188 208 225 174 185 186 177 182 178 171 166 161 154 144 141 145 155 161 165 168 171 175 183 191 197 199 198 200 204
168 160 154 168 173 191 172 166 165 192 213 238 250 189 182 193 215 202 191 195 188 193 174 182 191 169 159 154 157 155 164 168 171 172 173 178 184 188 194 195 196 198 201
176 168 171 174 179 194 176 159 158 193 205 178 246 255 259 251 236 227 203 214 206 202 182 191 184 169 172 152 160 165 171 173 178 180 181 184 187 189 190 193 193 198 200
190 165 168 171 179 193 182 169 178 198 186 207 227 264 275 281 279 274 213 193 236 223 205 204 171 179 160 160 168 172 177 180 183 185 187 188 190 194 198 200 202 203 202
178 171 173 168 181 194 184 171 183 192 181 214 236 241 255 261 268 276 255 181 206 239 223 209 182 169 166 156 161 185 169 184 187 189 192 193 196 200 204 204 203 205 205
175 169 180 178 186 191 190 187 192 177 175 208 219 217 247 276 293 280 279 267 249 221 234 213 214 156 169 171 177 196 177 180 195 194 196 200 201 204 206 207 207 210 210
210 189 184 184 194 194 190 187 204 191 190 209 230 212 235 243 280 270 274 270 270 311 257 293 303 164 225 211 196 209 194 190 197 199 200 202 204 206 208 210 212 212 212
218 214 190 186 199 198 195 198 208 199 196 201 206 212 224 239 271 288 283 278 273 230 204 270 297 265 253 235 214 216 221 212 195 197 200 203 206 208 211 213 213 213 214
231 229 205 198 205 200 198 206 209 212 201 203 212 214 208 213 243 272 284 278 272 266 205 249 259 255 249 237 251 244 238 227 231 193 200 207 211 212 213 214 213 215 216
232 225 216 217 208 193 202 213 210 211 203 209 213 214 211 201 210 238 253 261 281 275 234 234 246 243 228 229 231 251 253 240 256 224 203 207 212 215 218 215 214 216 217
229 224 223 222 220 207 206 208 221 210 210 218 216 214 214 191 187 221 249 256 265 268 263 251 245 250 242 218 248 266 268 253 252 246 197 216 207 211 217 219 220 219 217
221 215 223 216 213 216 156 168 215 234 228 226 218 218 222 193 198 212 238 252 247 239 253 261 257 255 257 241 248 258 265 269 261 237 214 242 217 215 220 210 210 212 214
215 212 215 207 185 178 170 175 209 242 243 233 222 223 237 213 200 215 218 226 237 235 225 231 250 260 261 242 237 255 262 268 263 260 240 250 231 228 230 224 203 202 207
223 217 217 211 191 187 182 181 197 227 243 239 234 231 226 222 224 210 236 243 245 247 234 230 238 252 264 255 238 238 255 269 271 253 213 243 251 244 243 216 200 199 204
221 221 214 205 196 181 184 188 189 223 235 235 231 230 222 217 210 191 213 244 256 260 264 264 247 249 251 249 238 241 247 257 271 264 229 227 249 255 247 226 205 200 205
219 221 215 207 196 181 186 194 199 227 239 238 225 222 215 221 193 188 214 239 255 268 279 280 267 251 237 232 224 219 227 242 258 261 237 226 247 250 263 243 218 199 214